Weather in Borgoy

Russia / Republic of Buryatia     50°44′56″N   105°50′12″E
temp.,
°C
wind,
m/s
gust,
m/s
humid.,
%
clouds,
%
prec.,
mm/h
press.,
hPa
HPBL,
m
14 april, wed
wed1423:00+5nne3454100 0.0 101366
02:00+2nne4976100 0.3 10161040
05:00+1nne51051100 0.0 10161259
08:00−1n4868100 0.4 1019981
11:00+1n6941100 0.1 10191613
14:00+2n7834100 0.1 10182072
17:00+3n7829100 0.0 10172250
20:000n34462 0.0 101976
15 april, thu
thu1523:00−3w22545 0.0 102011
02:00−4w226513 0.0 101818
05:00−5wsw2267100 0.0 101613
08:00−2wsw2453100 0.0 1014246
11:00+2wsw3437100 0.0 1012825
14:00+5n81030100 0.3 10112757
17:00+3nnw12183283 0.1 10152037
20:000nnw511525 0.1 1020721
16 april, fri
fri1623:00−2nw246039 0.0 1023173
02:00−3wsw1165100 0.0 102313
05:00−4wsw116952 0.0 102411
08:00−1wsw225572 0.0 1024218
11:00+4wsw3438100 0.0 1021724
14:00+8sw552915 0.0 10181120
17:00+11sw452687 0.0 10151444
20:00+7s22383 0.0 101517
17 april, sat
sat1723:00+4s11515 0.0 101510
02:00+3sw11565 0.0 101410
05:00+1sw11625 0.0 101310
08:00+4ssw12545 0.0 1013129
11:00+9ssw23400 0.0 1009562
14:00+14wsw36280 0.0 10051332
17:00+17sw57210 0.0 10011963
20:00+12sw33280 0.0 100015
18 april, sun
sun1823:00+8nnw22384 0.0 100114
02:00+6nw2253100 0.0 100210
05:00+6wnw1152100 0.0 100210
08:00+9w114038 0.0 100266
11:00+13ssw012869 0.0 1002705
14:00+15ne643365 0.0 10021569
17:00+10nne9942100 0.0 1006780
20:00+6ne46553 0.0 1010474